Location: Camaret
(48.2753°N, 4.5961°W)
Time: 04:16:21
(UTC+00:00)

USA 307 - Pass Details

Date: 29 October 2020
Orbit: 569 x 579 km, 54.0° (Epoch: 30 November)

Event Time Altitude Azimuth Distance (km) Brightness Sun altitude
Rises 18:36:56 0° 298° (WNW) 2,791 7.5 -16.0°
Reaches altitude 10° 18:39:12 10° 297° (WNW) 1,888 6.5 -16.4°
Maximum altitude 18:43:29 77° 212° (SSW) 593 3.0 -17.1°
Enters shadow 18:45:41 28° 130° (SE) 1,090 3.9 -17.5°
